Date String (YYYY-MM-DD hh:mm:ss) UTC,Instrument flags,Ambient pressure (hPa),Sample flow (lpm),Bypass flow (lpm),Sample temperature (°C),Ambient temperature (°C),ASC tube jacket temperature (°C),LED temperature (°C),Box temperature (°C),Sample RH (%),Span deviation,Mass concentration (μg/m³),Mass concentration (μg/m³),Mass concentration (μg/m³)
DateTimeUTC,F1_M11,P_M11,Q1_M11,Q2_M11,T1_M11,T2_M11,T3_M11,T4_M11,T5_M11,U1_M11,ZSPAN_M11,X0_M11,X2_M11,X1_M11
2022-04-22 18:00:00,,0811.4,5.01,0.00,29.6,28.4,00.0,38.4,31.4,10.3,0000.2,0027.70,0007.31,0004.24
2022-04-22 18:01:00,,0811.4,4.99,0.00,29.6,28.5,00.0,38.4,31.5,09.6,-000.0,0030.98,0007.40,0004.19
2022-04-22 18:02:00,,0811.4,5.01,0.00,29.7,28.6,00.0,38.4,31.5,10.5,-000.2,0029.76,0007.33,0004.17
2022-04-22 18:03:00,,0811.4,4.99,0.00,29.7,28.8,00.0,38.5,31.6,08.3,-000.4,0029.15,0007.33,0004.13
2022-04-22 18:04:00,,0811.4,5.01,0.00,29.8,28.7,00.0,38.5,31.6,07.1,-000.8,0029.04,0007.12,0004.00
2022-04-22 18:05:00,,0811.3,5.00,0.00,29.7,27.0,00.0,38.5,31.3,07.1,-001.4,0028.16,0006.79,0003.83
2022-04-22 18:06:00,,0811.4,4.98,0.00,29.6,25.6,00.0,38.5,31.0,08.8,-000.7,0026.92,0006.57,0003.73
2022-04-22 18:07:00,,0811.3,5.02,0.00,29.5,25.8,00.0,38.4,31.0,07.4,0000.3,0026.35,0006.36,0003.63
2022-04-22 18:08:00,,0811.2,5.00,0.00,29.5,26.3,00.0,38.4,31.1,06.7,0000.7,0025.76,0006.12,0003.51
2022-04-22 18:09:00,,0811.2,5.01,0.00,29.4,26.7,00.0,38.4,31.1,06.0,0001.1,0025.69,0005.97,0003.40
2022-04-22 18:10:00,,0811.1,4.99,0.00,29.4,27.2,00.0,38.3,31.2,05.7,0001.2,0025.50,0005.79,0003.30
2022-04-22 18:11:00,,0811.1,5.00,0.00,29.5,27.5,00.0,38.3,31.2,05.8,0001.3,0023.14,0005.44,0003.18
2022-04-22 18:12:00,,0811.0,5.00,0.00,29.5,27.9,00.0,38.3,31.3,06.6,0000.0,0020.95,0005.13,0003.04
2022-04-22 18:13:00,,0811.0,5.00,0.00,29.5,28.1,00.0,38.4,31.4,06.9,0000.0,0021.25,0005.04,0002.84
2022-04-22 18:14:00,,0811.0,4.99,0.00,29.6,28.2,00.0,38.4,31.4,06.2,0000.0,0021.09,0004.87,0002.68
2022-04-22 18:15:00,,0811.0,5.00,0.00,29.6,28.4,00.0,38.4,31.4,05.8,0000.0,0020.54,0004.76,0002.64
2022-04-22 18:16:00,,0810.9,5.02,0.00,29.6,28.5,00.0,38.4,31.5,05.6,0000.0,0019.90,0004.73,0002.62
2022-04-22 18:17:00,,0811.0,4.99,0.00,29.7,28.6,00.0,38.4,31.5,05.8,0000.0,0019.16,0004.58,0002.47
2022-04-22 18:18:00,,0810.9,5.01,0.00,29.7,28.7,00.0,38.4,31.6,05.7,0000.0,0018.52,0004.48,0002.39
2022-04-22 18:19:00,,0810.9,4.99,0.00,29.7,28.6,00.0,38.5,31.6,05.6,0000.0,0018.09,0004.44,0002.37
2022-04-22 18:20:00,,0810.8,5.00,0.00,29.7,26.9,00.0,38.5,31.2,05.5,0000.0,0017.95,0004.41,0002.38
2022-04-22 18:21:00,,0810.7,5.01,0.00,29.5,25.6,00.0,38.5,30.9,05.6,0000.0,0017.33,0004.38,0002.39
2022-04-22 18:22:00,,0810.6,5.01,0.00,29.5,25.9,00.0,38.4,31.0,06.5,0000.0,0016.68,0004.43,0002.38
2022-04-22 18:23:00,,0810.6,5.00,0.00,29.4,26.3,00.0,38.4,31.0,07.2,0000.0,0014.90,0004.47,0002.41
2022-04-22 18:24:00,,0810.5,5.01,0.00,29.4,26.8,00.0,38.4,31.1,07.1,0000.0,0013.80,0004.48,0002.42
2022-04-22 18:25:00,,0810.5,5.00,0.00,29.4,27.2,00.0,38.3,31.1,07.1,0000.0,0014.04,0004.50,0002.45
2022-04-22 18:26:00,,0810.5,4.98,0.00,29.5,27.5,00.0,38.3,31.2,06.2,0000.0,0015.07,0004.64,0002.46
2022-04-22 18:27:00,,0810.4,5.02,0.00,29.5,27.8,00.0,38.3,31.2,06.1,0000.0,0016.56,0004.70,0002.48
2022-04-22 18:28:00,,0810.4,5.00,0.00,29.5,28.0,00.0,38.3,31.3,05.9,0000.0,0016.67,0004.76,0002.52
2022-04-22 18:29:00,,0810.2,4.99,0.00,29.5,28.2,00.0,38.4,31.3,06.0,0000.0,0016.28,0004.79,0002.55
2022-04-22 18:30:00,,0810.1,5.02,0.00,29.6,28.3,00.0,38.4,31.4,05.6,0000.0,0016.71,0004.86,0002.56
2022-04-22 18:31:00,,0810.1,5.00,0.00,29.6,28.4,00.0,38.4,31.4,05.7,0000.0,0018.10,0004.92,0002.55
2022-04-22 18:32:00,,0810.1,5.00,0.00,29.6,28.5,00.0,38.4,31.5,05.5,0000.0,0020.02,0004.99,0002.55
2022-04-22 18:33:00,,0809.9,5.02,0.00,29.7,28.5,00.0,38.4,31.5,05.4,0000.0,0021.70,0005.00,0002.55
2022-04-22 18:34:00,,0809.9,4.98,0.00,29.7,28.6,00.0,38.5,31.6,05.5,0000.0,0021.78,0004.99,0002.52
2022-04-22 18:35:00,,0809.9,5.01,0.00,29.7,27.7,00.0,38.5,31.4,05.5,0000.0,0022.55,0004.92,0002.45
2022-04-22 18:36:00,,0810.1,5.01,0.00,29.6,25.8,00.0,38.4,31.0,05.4,0000.0,0021.94,0004.86,0002.38
2022-04-22 18:37:00,,0810.0,5.00,0.00,29.5,25.6,00.0,38.4,30.9,05.5,0000.0,0020.82,0004.84,0002.38
2022-04-22 18:38:00,,0809.9,4.99,0.00,29.4,26.0,00.0,38.4,30.9,05.5,0000.0,0019.94,0004.87,0002.38
2022-04-22 18:39:00,,0809.9,5.01,0.00,29.4,26.5,00.0,38.4,31.0,05.5,0000.0,0021.06,0004.93,0002.36
2022-04-22 18:40:00,,0809.8,4.99,0.00,29.4,26.9,00.0,38.3,31.0,05.3,0000.0,0021.74,0005.00,0002.35
2022-04-22 18:41:00,,0809.7,5.00,0.00,29.4,27.3,00.0,38.3,31.1,05.5,0000.0,0023.35,0005.09,0002.37
2022-04-22 18:42:00,,0809.8,5.00,0.00,29.4,27.5,00.0,38.3,31.2,05.5,0000.0,0023.50,0005.11,0002.39
2022-04-22 18:43:00,,0809.9,4.99,0.00,29.4,27.7,00.0,38.3,31.2,05.5,0000.0,0022.36,0005.08,0002.39
2022-04-22 18:44:00,,0809.9,5.01,0.00,29.5,27.9,00.0,38.3,31.3,05.4,0000.0,0021.07,0005.00,0002.40
2022-04-22 18:45:00,,0809.8,4.99,0.00,29.5,28.0,00.0,38.3,31.3,05.3,0000.0,0021.65,0005.01,0002.39
2022-04-22 18:46:00,,0809.8,5.00,0.00,29.5,28.1,00.0,38.3,31.3,05.3,0000.0,0020.97,0004.97,0002.40
2022-04-22 18:47:00,,0809.7,4.99,0.00,29.5,28.3,00.0,38.4,31.4,05.7,0000.0,0021.23,0004.93,0002.43
2022-04-22 18:48:00,,0809.8,5.00,0.00,29.6,28.4,00.0,38.4,31.4,05.7,0000.0,0021.47,0004.84,0002.42
2022-04-22 18:49:00,,0809.7,5.02,0.00,29.6,28.4,00.0,38.4,31.5,05.4,0000.0,0021.82,0004.78,0002.42
2022-04-22 18:50:00,,0809.6,4.99,0.00,29.6,28.5,00.0,38.4,31.5,05.6,0000.0,0020.97,0004.74,0002.43
2022-04-22 18:51:00,,0809.5,5.00,0.00,29.7,28.6,00.0,38.5,31.6,05.9,0000.0,0022.85,0004.84,0002.45
2022-04-22 18:52:00,,0809.5,4.99,0.00,29.7,27.8,00.0,38.5,31.4,05.5,0000.0,0022.31,0004.81,0002.43
2022-04-22 18:53:00,,0809.3,4.99,0.00,29.6,25.9,00.0,38.4,31.0,05.3,0000.0,0020.86,0004.75,0002.40
2022-04-22 18:54:00,,0809.4,5.01,0.00,29.5,25.6,00.0,38.4,31.0,05.3,0000.0,0024.19,0004.85,0002.38
2022-04-22 18:55:00,,0809.3,4.99,0.00,29.4,26.0,00.0,38.4,31.0,05.4,0000.0,0025.17,0004.95,0002.39
2022-04-22 18:56:00,,0809.3,5.00,0.00,29.4,26.5,00.0,38.4,31.0,05.5,0000.0,0024.22,0004.93,0002.39
2022-04-22 18:57:00,,0809.3,5.01,0.00,29.4,26.9,00.0,38.3,31.1,05.6,0000.0,0024.18,0005.00,0002.39
2022-04-22 18:58:00,,0809.3,4.99,0.00,29.4,27.2,00.0,38.3,31.1,06.0,0000.0,0024.14,0005.12,0002.36
2022-04-22 18:59:00,,0809.3,5.01,0.00,29.4,27.5,00.0,38.3,31.2,06.2,0000.0,0023.94,0005.15,0002.36
